Location: Costa Valle Imagna
(45.8000°N, 9.5000°E)
Time: 17:51:05
(UTC+00:00)

Cosmos 2333 Rocket - Pass Details

Date: 17 February 2020
Orbit: 841 x 861 km, 70.8° (Epoch: 01 April)

Event Time Altitude Azimuth Distance (km) Brightness Sun altitude
Exits shadow 03:31:57 18° 350° (N) 1,972 4.1 -30.2°
Drops below altitude 10° 03:33:59 10° 7° (N) 2,495 4.8 -29.8°
Sets 03:36:54 0° 21° (NNE) 3,431 5.8 -29.3°
